When you browse on this site, cookies collect data to enhance your experience and personalize the content and advertising you see.
Visit our Privacy Policy to learn more. By continuing to use the site, you agree to this use of cookies and data.

Tiempo cada hora Kankan

Hoy, 20 Septiembre, Domingo

Tiempo Temperatura Precipitaciones Viento Presión Humedad
00:00 +23°C° 0 mm 1 mps 684 mmHg 81%
01:00 +23°C° 0 mm 1 mps 684 mmHg 80%
02:00 +23°C° 0 mm 1 mps 684 mmHg 81%
03:00 +23°C° 0 mm 1 mps 683 mmHg 82%
04:00 +23°C° 0 mm 2 mps 683 mmHg 83%
05:00 +21°C° 0 mm 2 mps 684 mmHg 86%
06:00 +21°C° 0 mm 2 mps 684 mmHg 88%
07:00 +21°C° 0 mm 2 mps 684 mmHg 91%
08:00 +24°C° 0 mm 2 mps 685 mmHg 84%
09:00 +26°C° 0 mm 2 mps 686 mmHg 78%
10:00 +28°C° 0 mm 2 mps 686 mmHg 71%
11:00 +28°C° 0.3 mm 2 mps 686 mmHg 69%
12:00 +29°C° 0.3 mm 2 mps 686 mmHg 67%
13:00 +30°C° 0.3 mm 3 mps 685 mmHg 65%
14:00 +29°C° 0.9 mm 3 mps 684 mmHg 69%
15:00 +28°C° 0.9 mm 3 mps 684 mmHg 73%
16:00 +28°C° 0.9 mm 3 mps 683 mmHg 77%
17:00 +26°C° 1.1 mm 3 mps 683 mmHg 80%
18:00 +25°C° 1.1 mm 3 mps 683 mmHg 84%
19:00 +24°C° 1.1 mm 2 mps 683 mmHg 88%
20:00 +22°C° 0.6 mm 3 mps 684 mmHg 88%
21:00 +22°C° 0.6 mm 3 mps 684 mmHg 88%
22:00 +22°C° 0.6 mm 3 mps 685 mmHg 89%
23:00 +21°C° 0.3 mm 3 mps 685 mmHg 90%

Mañana, 21 Septiembre, Lunes

Tiempo Temperatura Precipitaciones Viento Presión Humedad
00:00 +21°C° 0.3 mm 3 mps 685 mmHg 90%
01:00 +21°C° 0.3 mm 3 mps 685 mmHg 91%
02:00 +21°C° 0.6 mm 2 mps 685 mmHg 92%
03:00 +21°C° 0.6 mm 2 mps 684 mmHg 93%
04:00 +21°C° 0.6 mm 2 mps 684 mmHg 94%
05:00 +22°C° 0.1 mm 1 mps 685 mmHg 94%
06:00 +22°C° 0.1 mm 1 mps 685 mmHg 93%
07:00 +22°C° 0.1 mm 1 mps 685 mmHg 92%
08:00 +23°C° 0.1 mm 1 mps 686 mmHg 86%
09:00 +25°C° 0.1 mm 1 mps 686 mmHg 79%
10:00 +26°C° 0.1 mm 1 mps 687 mmHg 73%
11:00 +28°C° 0.1 mm 1 mps 687 mmHg 68%
12:00 +29°C° 0.1 mm 1 mps 687 mmHg 63%
13:00 +30°C° 0.1 mm 1 mps 686 mmHg 58%
14:00 +29°C° 1.8 mm 1 mps 686 mmHg 65%
15:00 +28°C° 1.8 mm 1 mps 685 mmHg 72%
16:00 +26°C° 1.8 mm 1 mps 684 mmHg 78%
17:00 +25°C° 0.5 mm 1 mps 684 mmHg 82%
18:00 +24°C° 0.5 mm 1 mps 684 mmHg 86%
19:00 +21°C° 0.5 mm 0 mps 684 mmHg 90%
20:00 +21°C° 0.5 mm 0 mps 685 mmHg 90%
21:00 +22°C° 0.5 mm 1 mps 685 mmHg 90%
22:00 +22°C° 0.5 mm 1 mps 686 mmHg 91%
23:00 +22°C° 0.8 mm 1 mps 685 mmHg 92%

Pasado mañana, 22 Septiembre, Martes

Tiempo Temperatura Precipitaciones Viento Presión Humedad
00:00 +21°C° 0.8 mm 1 mps 685 mmHg 94%
01:00 +21°C° 0.8 mm 1 mps 685 mmHg 95%
02:00 +21°C° 0.2 mm 1 mps 685 mmHg 95%
03:00 +21°C° 0.2 mm 1 mps 685 mmHg 96%
04:00 +21°C° 0.2 mm 1 mps 684 mmHg 96%
05:00 +21°C° 0.1 mm 1 mps 685 mmHg 95%
06:00 +21°C° 0.1 mm 1 mps 685 mmHg 95%
07:00 +22°C° 0.1 mm 1 mps 685 mmHg 94%
08:00 +23°C° 0 mm 1 mps 686 mmHg 87%
09:00 +25°C° 0 mm 1 mps 687 mmHg 80%
10:00 +27°C° 0 mm 1 mps 687 mmHg 72%
11:00 +29°C° 0.3 mm 1 mps 687 mmHg 67%
12:00 +30°C° 0.3 mm 1 mps 686 mmHg 61%
13:00 +31°C° 0.3 mm 1 mps 686 mmHg 56%
14:00 +31°C° 1.2 mm 1 mps 685 mmHg 59%
15:00 +30°C° 1.2 mm 1 mps 685 mmHg 63%
16:00 +29°C° 1.2 mm 1 mps 684 mmHg 66%
17:00 +28°C° 0.7 mm 1 mps 684 mmHg 72%
18:00 +26°C° 0.7 mm 1 mps 684 mmHg 78%
19:00 +22°C° 0.7 mm 0 mps 684 mmHg 83%
20:00 +22°C° 0.9 mm 0 mps 685 mmHg 86%
21:00 +21°C° 0.9 mm 0 mps 685 mmHg 88%
22:00 +23°C° 0.9 mm 1 mps 686 mmHg 91%
23:00 +22°C° 0.6 mm 1 mps 685 mmHg 91%

23 Septiembre, Miércoles

Tiempo Temperatura Precipitaciones Viento Presión Humedad
00:00 +22°C° 0.6 mm 1 mps 685 mmHg 92%
01:00 +21°C° 0.6 mm 2 mps 685 mmHg 92%
02:00 +21°C° 0 mm 1 mps 685 mmHg 92%
03:00 +21°C° 0 mm 1 mps 685 mmHg 91%
04:00 +21°C° 0 mm 1 mps 684 mmHg 90%
05:00 +21°C° 0 mm 1 mps 685 mmHg 91%
06:00 +22°C° 0 mm 1 mps 685 mmHg 91%
07:00 +22°C° 0 mm 1 mps 685 mmHg 91%
08:00 +24°C° 0 mm 1 mps 686 mmHg 83%
09:00 +26°C° 0 mm 1 mps 687 mmHg 75%
10:00 +29°C° 0 mm 1 mps 688 mmHg 67%
11:00 +30°C° 0.1 mm 1 mps 687 mmHg 63%
12:00 +31°C° 0.1 mm 1 mps 687 mmHg 58%
13:00 +32°C° 0.1 mm 2 mps 686 mmHg 53%
14:00 +31°C° 0.6 mm 2 mps 685 mmHg 57%
15:00 +30°C° 0.6 mm 2 mps 685 mmHg 61%
16:00 +30°C° 0.6 mm 2 mps 684 mmHg 65%
17:00 +28°C° 1.6 mm 1 mps 684 mmHg 71%
18:00 +26°C° 1.6 mm 1 mps 684 mmHg 77%
19:00 +24°C° 1.6 mm 1 mps 684 mmHg 84%
20:00 +24°C° 1.9 mm 1 mps 684 mmHg 86%
21:00 +23°C° 1.9 mm 1 mps 685 mmHg 89%
22:00 +22°C° 1.9 mm 1 mps 685 mmHg 91%
23:00 +22°C° 0.7 mm 1 mps 685 mmHg 91%

24 Septiembre, Jueves

Tiempo Temperatura Precipitaciones Viento Presión Humedad
00:00 +22°C° 0.7 mm 1 mps 685 mmHg 90%
01:00 +22°C° 0.7 mm 1 mps 684 mmHg 90%
02:00 +22°C° 0.3 mm 1 mps 684 mmHg 89%
03:00 +22°C° 0.3 mm 1 mps 684 mmHg 89%
04:00 +22°C° 0.3 mm 1 mps 684 mmHg 89%
05:00 +22°C° 0.4 mm 1 mps 684 mmHg 89%
06:00 +22°C° 0.4 mm 1 mps 685 mmHg 89%
07:00 +22°C° 0.4 mm 1 mps 685 mmHg 89%
08:00 +23°C° 0.2 mm 1 mps 686 mmHg 86%
09:00 +24°C° 0.2 mm 1 mps 686 mmHg 83%
10:00 +25°C° 0.2 mm 1 mps 687 mmHg 80%
11:00 +27°C° 0 mm 1 mps 687 mmHg 72%
12:00 +27°C° 0 mm 0 mps 686 mmHg 64%
13:00 +29°C° 0 mm 0 mps 686 mmHg 56%
14:00 +29°C° 0.2 mm 0 mps 685 mmHg 59%
15:00 +30°C° 0.2 mm 1 mps 685 mmHg 62%
16:00 +29°C° 0.2 mm 1 mps 684 mmHg 65%
17:00 +27°C° 1 mm 1 mps 684 mmHg 72%
18:00 +24°C° 1 mm 0 mps 684 mmHg 79%
19:00 +22°C° 1 mm 0 mps 683 mmHg 85%
20:00 +23°C° 2.6 mm 1 mps 684 mmHg 88%
21:00 +23°C° 2.6 mm 1 mps 684 mmHg 90%
22:00 +23°C° 2.6 mm 2 mps 685 mmHg 92%
23:00 +21°C° 0.7 mm 2 mps 685 mmHg 92%

25 Septiembre, Viernes

Tiempo Temperatura Precipitaciones Viento Presión Humedad
00:00 +21°C° 0.7 mm 2 mps 685 mmHg 92%
01:00 +22°C° 0.7 mm 1 mps 685 mmHg 92%
02:00 +22°C° 0.3 mm 1 mps 685 mmHg 92%
03:00 +22°C° 0.3 mm 1 mps 684 mmHg 92%
04:00 +21°C° 0.3 mm 1 mps 684 mmHg 92%
05:00 +21°C° 0 mm 1 mps 684 mmHg 92%
06:00 +21°C° 0 mm 1 mps 685 mmHg 93%
07:00 +22°C° 0 mm 1 mps 685 mmHg 93%
08:00 +24°C° 0 mm 1 mps 686 mmHg 85%
09:00 +26°C° 0 mm 1 mps 686 mmHg 76%
10:00 +29°C° 0 mm 1 mps 687 mmHg 68%
11:00 +30°C° 0 mm 1 mps 686 mmHg 63%
12:00 +31°C° 0 mm 1 mps 686 mmHg 57%
13:00 +32°C° 0 mm 1 mps 686 mmHg 52%
14:00 +32°C° 0.4 mm 1 mps 685 mmHg 54%
15:00 +31°C° 0.4 mm 2 mps 684 mmHg 56%
16:00 +31°C° 0.4 mm 2 mps 684 mmHg 58%
17:00 +29°C° 0.7 mm 2 mps 683 mmHg 66%
18:00 +27°C° 0.7 mm 1 mps 683 mmHg 75%
19:00 +24°C° 0.7 mm 1 mps 683 mmHg 83%
20:00 +24°C° 1.2 mm 1 mps 683 mmHg 86%
21:00 +23°C° 1.2 mm 1 mps 684 mmHg 88%
22:00 +22°C° 1.2 mm 1 mps 684 mmHg 91%
23:00 +22°C° 1.2 mm 1 mps 684 mmHg 91%
Mostrar más